TimeAKST,TemperatureF,Dew PointF,Humidity,Sea Level PressureIn,VisibilityMPH,Wind Direction,Wind SpeedMPH,Gust SpeedMPH,PrecipitationIn,Events,Conditions,WindDirDegrees,DateUTC
12:53 AM,8.1,1.9,76,30.38,10.0,Calm,Calm,-,N/A,,Clear,0,2012-11-08 09:53:00
1:53 AM,7.0,3.0,84,30.39,10.0,Calm,Calm,-,N/A,,Clear,0,2012-11-08 10:53:00
3:32 AM,8.6,5.0,85,30.36,10.0,Calm,Calm,-,N/A,,Partly Cloudy,0,2012-11-08 12:32:00
3:53 AM,10.0,7.0,87,30.37,10.0,Calm,Calm,-,N/A,Fog,Partly Cloudy,0,2012-11-08 12:53:00
4:53 AM,9.0,5.0,84,30.37,10.0,Calm,Calm,-,N/A,,Clear,0,2012-11-08 13:53:00
5:53 AM,12.0,8.1,84,30.36,10.0,Calm,Calm,-,N/A,,Clear,0,2012-11-08 14:53:00
6:53 AM,12.0,8.1,84,30.34,10.0,NE,3.5,-,N/A,,Clear,40,2012-11-08 15:53:00
7:53 AM,10.0,7.0,87,30.35,10.0,ENE,3.5,-,N/A,,Scattered Clouds,70,2012-11-08 16:53:00
8:53 AM,12.9,9.0,84,30.35,10.0,NNE,3.5,-,N/A,,Overcast,20,2012-11-08 17:53:00
9:53 AM,15.1,9.0,77,30.35,10.0,Calm,Calm,-,N/A,,Overcast,0,2012-11-08 18:53:00
10:53 AM,16.0,10.9,81,30.35,10.0,NE,3.5,-,N/A,,Overcast,40,2012-11-08 19:53:00
11:53 AM,18.0,10.0,71,30.34,10.0,North,6.9,-,N/A,,Overcast,360,2012-11-08 20:53:00
12:53 PM,19.9,12.0,71,30.33,10.0,North,5.8,-,N/A,,Overcast,360,2012-11-08 21:53:00
1:53 PM,19.9,10.9,68,30.32,10.0,North,6.9,-,N/A,,Overcast,10,2012-11-08 22:53:00
2:53 PM,21.0,9.0,60,30.30,10.0,North,8.1,-,N/A,,Overcast,360,2012-11-08 23:53:00
3:53 PM,21.9,8.1,55,30.29,10.0,NNE,4.6,-,N/A,,Overcast,20,2012-11-09 00:53:00
4:53 PM,21.9,8.1,55,30.29,10.0,North,3.5,-,N/A,,Overcast,10,2012-11-09 01:53:00
5:53 PM,21.9,8.1,55,30.27,10.0,NNE,4.6,-,N/A,,Overcast,20,2012-11-09 02:53:00
6:53 PM,21.9,10.0,60,30.25,10.0,Calm,Calm,-,N/A,,Overcast,0,2012-11-09 03:53:00
7:53 PM,21.9,10.9,63,30.25,10.0,NE,3.5,-,N/A,,Overcast,50,2012-11-09 04:53:00
8:53 PM,23.0,10.9,60,30.23,10.0,NE,3.5,-,N/A,,Overcast,50,2012-11-09 05:53:00
9:53 PM,23.0,10.9,60,30.22,10.0,Calm,Calm,-,N/A,,Overcast,0,2012-11-09 06:53:00
10:53 PM,24.1,10.9,57,30.21,10.0,NE,3.5,-,N/A,,Overcast,50,2012-11-09 07:53:00
11:53 PM,24.1,10.9,57,30.19,10.0,Calm,Calm,-,N/A,,Overcast,0,2012-11-09 08:53:00